Location: Belfast
(54.5830°N, 5.9330°W)
Time: 02:25:24
(UTC+00:00)

ISS - Pass Details

Date: 01 February 2021
Orbit: 417 x 422 km, 51.6° (Epoch: 25 February)

Event Time Altitude Azimuth Distance (km) Brightness Sun altitude
Rises 17:46:54 0° 269° (W) 2,376 1.7 -6.6°
Reaches altitude 10° 17:49:03 10° 264° (W) 1,511 0.6 -6.9°
Maximum altitude 17:52:19 47° 190° (S) 574 -2.8 -7.4°
Drops below altitude 10° 17:55:35 10° 115° (ESE) 1,511 -1.4 -7.8°
Enters shadow 17:56:35 - 112° (ESE) 1,908 -0.9 -8.0°
